Rochester/St. Mary\'s Hospita, MN

3:02 PM CST on December 15, 2019 (GMT -0600)
Rochester/St. Mary\'s Hospita

Weather History for K9MN - October, 2019

Change the Weather History Date:

Wednesday, October 16, 2019

  Actual Average (KRST) Record (KRST)
Temperature  
Mean Temperature 42 °F -  
Max Temperature 45 °F 57 °F 84 °F (1953)
Min Temperature 40 °F 35 °F 21 °F (1937)
Degree Days  
Heating Degree Days 22    
Moisture  
Dew Point 35 °F    
Average Humidity 77    
Maximum Humidity 94    
Minimum Humidity 64    
Precipitation  
Precipitation 0.00 in - - ()
Sea Level Pressure  
Sea Level Pressure 30.07 in    
Wind  
Wind Speed 11 mph (WNW)    
Max Wind Speed 16 mph    
Max Gust Speed 26 mph    
Visibility 10 miles    
Events      
Averages and records for this station are not official NWS values.
T = Trace of Precipitation, MM = Missing Value Source: NWS Daily Summary

Daily Weather History Graph

Daily Weather History Graph

Search for Another Location

Airport or City:

Astronomy

Oct. 16, 2019 Rise Set
Actual Time 7:25 AM CDT 6:24 PM CDT
Civil Twilight 6:56 AM CDT 6:53 PM CDT
Nautical Twilight 6:22 AM CDT 7:27 PM CDT
Astronomical Twilight 5:49 AM CDT 8:00 PM CDT
Moon 8:13 PM CDT (10/16) 10:00 AM CDT (10/16)
Length of Visible Light 11h 57m
Length of Day
10h 59m
Waning Gibbous, 92% of the Moon is Illuminated
Oct 16
Waning Gibbous
Oct 21
Last Quarter
Oct 27
New
Nov 4
First Quarter
Nov 12
Full

Hourly Weather History & Observations

Time (CDT) Temp. Windchill Dew Point Humidity Pressure Visibility Wind Dir Wind Speed Gust Speed Precip Events Conditions
12:15 AM 42.1 °F 34.9 °F 34.7 °F 75% 30.00 in 10.0 mi NW 13.8 mph 26.5 mph N/A   Overcast
12:35 AM 42.1 °F 34.2 °F 34.3 °F 74% 30.01 in 10.0 mi NW 16.1 mph 21.9 mph N/A   Overcast
12:36 AM 42.1 °F 34.2 °F 34.3 °F 74% 30.01 in 10.0 mi NW 16.1 mph 21.9 mph N/A   Overcast
12:55 AM 41.9 °F 36.3 °F 34.2 °F 74% 30.01 in 10.0 mi NW 9.2 mph 20.7 mph N/A   Overcast
12:56 AM 41.9 °F 36.3 °F 34.0 °F 73% 30.01 in 10.0 mi NW 9.2 mph 20.7 mph N/A   Overcast
1:15 AM 41.5 °F 35.0 °F 33.8 °F 74% 30.02 in 10.0 mi WNW 11.5 mph 18.4 mph N/A   Overcast
1:35 AM 41.0 °F 33.1 °F 33.8 °F 76% 30.02 in 10.0 mi NW 15.0 mph 23.0 mph N/A   Mostly Cloudy
1:55 AM 40.6 °F 33.4 °F 34.0 °F 77% 30.03 in 10.0 mi WNW 12.7 mph 20.7 mph N/A   Scattered Clouds
1:56 AM 40.5 °F 33.6 °F 33.8 °F 77% 30.03 in 10.0 mi NW 11.5 mph 20.7 mph N/A   Clear
2:15 AM 40.6 °F 33.4 °F 34.2 °F 78% 30.03 in 10.0 mi WNW 12.7 mph 19.6 mph N/A   Mostly Cloudy
2:16 AM 40.6 °F 33.8 °F 34.2 °F 78% 30.03 in 10.0 mi WNW 11.5 mph 19.6 mph N/A   Mostly Cloudy
2:35 AM 41.0 °F 33.9 °F 35.1 °F 79% 30.04 in 10.0 mi WNW 12.7 mph 24.2 mph N/A   Overcast
2:55 AM 41.0 °F 34.3 °F 35.4 °F 81% 30.04 in 10.0 mi NW 11.5 mph 23.0 mph N/A   Overcast
3:15 AM 40.8 °F 32.6 °F 35.4 °F 81% 30.04 in 10.0 mi WNW 16.1 mph 23.0 mph N/A   Overcast
3:16 AM 40.8 °F 32.6 °F 35.4 °F 81% 30.04 in 10.0 mi WNW 16.1 mph 23.0 mph N/A   Overcast
3:35 AM 41.0 °F 33.5 °F 35.6 °F 81% 30.03 in 10.0 mi WNW 13.8 mph 23.0 mph N/A   Overcast
3:55 AM 41.0 °F 33.9 °F 35.4 °F 81% 30.04 in 10.0 mi WNW 12.7 mph 21.9 mph N/A   Overcast
4:15 AM 41.0 °F 33.5 °F 35.6 °F 81% 30.04 in 10.0 mi WNW 13.8 mph 20.7 mph N/A   Overcast
4:35 AM 41.0 °F 33.1 °F 36.1 °F 83% 30.05 in 10.0 mi WNW 15.0 mph 20.7 mph N/A   Mostly Cloudy
4:36 AM 41.0 °F 32.8 °F 36.1 °F 83% 30.05 in 10.0 mi WNW 16.1 mph 20.7 mph N/A   Mostly Cloudy
4:55 AM 41.0 °F 33.9 °F 36.7 °F 85% 30.05 in 10.0 mi WNW 12.7 mph 19.6 mph N/A   Overcast
5:15 AM 40.1 °F 34.1 °F 37.8 °F 91% 30.06 in 3.0 mi WNW 9.2 mph 17.3 mph N/A   Overcast
5:35 AM 40.1 °F 32.4 °F 38.3 °F 93% 30.06 in 7.0 mi WNW 13.8 mph 19.6 mph N/A   Overcast
5:55 AM 40.3 °F 33.9 °F 38.3 °F 93% 30.06 in 10.0 mi WNW 10.4 mph - N/A   Overcast
5:56 AM 40.3 °F 34.4 °F 38.3 °F 93% 30.07 in 10.0 mi WNW 9.2 mph - N/A   Overcast
6:15 AM 40.5 °F 34.1 °F 38.5 °F 93% 30.06 in 10.0 mi WNW 10.4 mph 17.3 mph N/A   Overcast
6:16 AM 40.5 °F 34.1 °F 38.5 °F 93% 30.06 in 10.0 mi WNW 10.4 mph 17.3 mph N/A   Overcast
6:35 AM 40.3 °F 33.4 °F 38.7 °F 94% 30.07 in 10.0 mi WNW 11.5 mph 18.4 mph N/A   Overcast
6:55 AM 40.5 °F 33.2 °F 38.7 °F 93% 30.06 in 10.0 mi WNW 12.7 mph 19.6 mph N/A   Overcast
7:15 AM 40.6 °F 33.4 °F 38.3 °F 91% 30.06 in 10.0 mi WNW 12.7 mph 21.9 mph N/A   Overcast
7:16 AM 40.6 °F 33.4 °F 38.3 °F 91% 30.06 in 10.0 mi WNW 12.7 mph 21.9 mph N/A   Overcast
7:35 AM 41.0 °F 34.7 °F 38.3 °F 90% 30.07 in 10.0 mi WNW 10.4 mph 17.3 mph N/A   Overcast
7:55 AM 41.0 °F 34.3 °F 37.9 °F 89% 30.07 in 10.0 mi WNW 11.5 mph 17.3 mph N/A   Overcast
8:15 AM 41.0 °F 33.5 °F 37.4 °F 87% 30.07 in 10.0 mi WNW 13.8 mph 18.4 mph N/A   Overcast
8:35 AM 41.0 °F 34.7 °F 37.4 °F 87% 30.08 in 10.0 mi NW 10.4 mph 19.6 mph N/A   Overcast
8:36 AM 41.2 °F 35.0 °F 37.4 °F 86% 30.08 in 10.0 mi WNW 10.4 mph 19.6 mph N/A   Overcast
8:55 AM 41.4 °F 34.0 °F 37.4 °F 86% 30.08 in 10.0 mi WNW 13.8 mph 18.4 mph N/A   Overcast
8:56 AM 41.4 °F 34.0 °F 37.4 °F 86% 30.08 in 10.0 mi WNW 13.8 mph 18.4 mph N/A   Overcast
9:15 AM 41.4 °F 35.7 °F 37.0 °F 85% 30.09 in 10.0 mi NW 9.2 mph 18.4 mph N/A   Overcast
9:35 AM 41.5 °F 34.2 °F 35.6 °F 79% 30.09 in 10.0 mi WNW 13.8 mph 24.2 mph N/A   Overcast
9:36 AM 41.7 °F 34.8 °F 35.6 °F 79% 30.09 in 10.0 mi NW 12.7 mph 24.2 mph N/A   Overcast
9:55 AM 42.3 °F 36.3 °F 34.7 °F 75% 30.09 in 10.0 mi NW 10.4 mph 19.6 mph N/A   Overcast
9:56 AM 42.3 °F 35.9 °F 34.7 °F 75% 30.09 in 10.0 mi NW 11.5 mph 19.6 mph N/A   Overcast
10:15 AM 42.8 °F 36.2 °F 35.8 °F 76% 30.10 in 10.0 mi WNW 12.7 mph 18.4 mph N/A   Overcast
10:35 AM 42.8 °F 37.0 °F 35.6 °F 76% 30.10 in 10.0 mi NW 10.4 mph 18.4 mph N/A   Overcast
10:55 AM 43.0 °F 35.7 °F 34.9 °F 73% 30.10 in 10.0 mi NW 15.0 mph 20.7 mph N/A   Overcast
10:56 AM 43.0 °F 36.0 °F 34.7 °F 73% 30.11 in 10.0 mi NW 13.8 mph 20.7 mph N/A   Overcast
11:15 AM 43.0 °F 36.8 °F 35.6 °F 75% 30.11 in 10.0 mi NW 11.5 mph 18.4 mph N/A   Overcast
11:16 AM 43.0 °F 36.4 °F 35.6 °F 75% 30.11 in 10.0 mi NW 12.7 mph 18.4 mph N/A   Overcast
11:35 AM 42.8 °F 36.6 °F 34.9 °F 74% 30.11 in 10.0 mi WNW 11.5 mph 17.3 mph N/A   Overcast
11:55 AM 43.2 °F 37.4 °F 34.3 °F 71% 30.11 in 10.0 mi NNW 10.4 mph 17.3 mph N/A   Overcast
12:15 PM 43.3 °F 39.9 °F 34.5 °F 71% 30.11 in 10.0 mi WNW 5.8 mph - N/A   Overcast
12:16 PM 43.5 °F 40.9 °F 34.5 °F 71% 30.12 in 10.0 mi NW 4.6 mph - N/A   Overcast
12:35 PM 43.3 °F 38.6 °F 34.9 °F 72% 30.11 in 10.0 mi WNW 8.1 mph - N/A   Overcast
12:36 PM 43.3 °F 38.6 °F 34.9 °F 72% 30.11 in 10.0 mi WNW 8.1 mph - N/A   Overcast
12:55 PM 43.7 °F 37.7 °F 34.7 °F 71% 30.10 in 10.0 mi WNW 11.5 mph 16.1 mph N/A   Overcast
1:15 PM 43.9 °F 39.3 °F 34.7 °F 70% 30.10 in 10.0 mi NW 8.1 mph 16.1 mph N/A   Overcast
1:35 PM 44.1 °F 37.4 °F 34.7 °F 70% 30.09 in 10.0 mi WNW 13.8 mph 18.4 mph N/A   Overcast
1:55 PM 44.1 °F 37.7 °F 34.7 °F 70% 30.09 in 10.0 mi WNW 12.7 mph 17.3 mph N/A   Overcast
1:56 PM 44.1 °F 37.7 °F 34.5 °F 69% 30.09 in 10.0 mi WNW 12.7 mph 17.3 mph N/A   Overcast
2:15 PM 44.2 °F 39.7 °F 34.9 °F 70% 30.08 in 10.0 mi WNW 8.1 mph 16.1 mph N/A   Overcast
2:35 PM 44.2 °F 39.7 °F 34.7 °F 69% 30.08 in 10.0 mi WNW 8.1 mph - N/A   Overcast
2:55 PM 44.8 °F 39.9 °F 34.7 °F 68% 30.08 in 10.0 mi WNW 9.2 mph - N/A   Overcast
3:15 PM 44.8 °F 39.9 °F 34.7 °F 68% 30.08 in 10.0 mi WNW 9.2 mph - N/A   Overcast
3:16 PM 44.8 °F 39.9 °F 34.5 °F 67% 30.08 in 10.0 mi WNW 9.2 mph - N/A   Overcast
3:35 PM 45.0 °F 42.6 °F 34.9 °F 68% 30.08 in 10.0 mi WNW 4.6 mph - N/A   Overcast
3:55 PM 45.1 °F 41.4 °F 34.3 °F 66% 30.07 in 10.0 mi WNW 6.9 mph - N/A   Overcast
4:15 PM 45.5 °F 40.8 °F 33.8 °F 64% 30.07 in 10.0 mi West 9.2 mph - N/A   Overcast
4:35 PM 45.1 °F 39.1 °F 35.6 °F 69% 30.07 in 10.0 mi West 12.7 mph 17.3 mph N/A   Overcast
4:36 PM 45.0 °F 39.3 °F 35.6 °F 70% 30.07 in 10.0 mi West 11.5 mph 17.3 mph N/A   Overcast
4:55 PM 44.6 °F 40.7 °F 35.6 °F 71% 30.07 in 10.0 mi West 6.9 mph - N/A   Overcast
4:56 PM 44.6 °F 40.2 °F 35.6 °F 71% 30.07 in 10.0 mi WNW 8.1 mph - N/A   Overcast
5:15 PM 44.6 °F 41.4 °F 35.6 °F 71% 30.06 in 10.0 mi WNW 5.8 mph - N/A   Overcast
5:35 PM 43.9 °F 40.5 °F 35.4 °F 72% 30.07 in 10.0 mi WNW 5.8 mph - N/A   Overcast
5:55 PM 44.2 °F 41.0 °F 35.6 °F 72% 30.06 in 10.0 mi West 5.8 mph - N/A   Overcast
5:56 PM 44.2 °F 40.3 °F 35.6 °F 72% 30.06 in 10.0 mi West 6.9 mph - N/A   Overcast
6:15 PM 44.2 °F 40.3 °F 35.1 °F 70% 30.06 in 10.0 mi West 6.9 mph - N/A   Overcast
6:16 PM 44.2 °F 39.7 °F 35.2 °F 71% 30.06 in 10.0 mi West 8.1 mph - N/A   Overcast
6:35 PM 43.9 °F 40.5 °F 35.2 °F 72% 30.06 in 10.0 mi West 5.8 mph - N/A   Overcast
6:55 PM 43.7 °F 40.3 °F 35.1 °F 72% 30.06 in 10.0 mi West 5.8 mph - N/A   Overcast
7:15 PM 43.7 °F 40.3 °F 34.9 °F 71% 30.06 in 10.0 mi West 5.8 mph - N/A   Overcast
7:35 PM 43.5 °F 38.9 °F 34.7 °F 71% 30.07 in 10.0 mi WSW 8.1 mph - N/A   Overcast
7:36 PM 43.3 °F 38.6 °F 34.7 °F 72% 30.06 in 10.0 mi WSW 8.1 mph - N/A   Overcast
7:55 PM 43.0 °F 39.5 °F 34.3 °F 72% 30.06 in 10.0 mi West 5.8 mph - N/A   Overcast
8:15 PM 43.0 °F 41.3 °F 34.9 °F 73% 30.06 in 10.0 mi West 3.5 mph - N/A   Overcast
8:35 PM 42.8 °F 39.3 °F 34.7 °F 73% 30.06 in 10.0 mi West 5.8 mph - N/A   Overcast
8:36 PM 42.8 °F 39.3 °F 34.7 °F 73% 30.06 in 10.0 mi West 5.8 mph - N/A   Overcast
8:55 PM 42.8 °F 40.1 °F 34.7 °F 73% 30.06 in 10.0 mi West 4.6 mph - N/A   Overcast
8:56 PM 42.8 °F 40.1 °F 34.7 °F 73% 30.06 in 10.0 mi West 4.6 mph - N/A   Overcast
9:15 PM 42.6 °F 39.9 °F 34.9 °F 74% 30.06 in 10.0 mi West 4.6 mph - N/A   Overcast
9:35 PM 41.9 °F 39.0 °F 34.9 °F 76% 30.06 in 10.0 mi West 4.6 mph - N/A   Overcast
9:55 PM 41.9 °F 38.2 °F 34.7 °F 76% 30.07 in 10.0 mi West 5.8 mph - N/A   Overcast
10:15 PM 41.4 °F 38.4 °F 34.7 °F 77% 30.07 in 10.0 mi WNW 4.6 mph - N/A   Overcast
10:16 PM 41.4 °F - 34.7 °F 77% 30.07 in 10.0 mi Calm Calm - N/A   Overcast
10:35 PM 42.1 °F 40.2 °F 34.9 °F 76% 30.07 in 10.0 mi West 3.5 mph - N/A   Overcast
10:55 PM 41.7 °F - 34.5 °F 76% 30.07 in 10.0 mi Calm Calm - N/A   Mostly Cloudy
11:15 PM 41.7 °F - 34.5 °F 76% 30.07 in 10.0 mi Calm Calm - N/A   Overcast
11:35 PM 41.9 °F - 34.9 °F 76% 30.07 in 10.0 mi Calm Calm - N/A   Overcast
11:55 PM 41.5 °F - 34.9 °F 77% 30.07 in 10.0 mi Calm Calm - N/A   Scattered Clouds
11:56 PM 41.5 °F - 34.9 °F 77% 30.07 in 10.0 mi Calm Calm - N/A   Scattered Clouds